CAPE
0 0 0 0 0 0 0 0 0 0 0 0 0 0 0 0 0 0 0 5 6 65 130 193 188 153 258 116 298 567 559 706 789 931 1357 1596 1759 1926 1886 1746 1720 1631 1532 1439 1264 1090 1185 1252 1367 1318 1320 1372 1431 1454 1642 1848 2021 1980 1742 1798 1909 2061 2164 2252 2065 1703 1503 1356 1438 1258 811 488 702 864 703 813 414 232 177 507 916 1421 1407 2057 2628 2816
0 0 0 0 0 0 0 0 0 0 0 0 0 0 0 0 0 0 0 0 0 10 100 102 133 184 239 203 108 430 618 602 691 892 1349 1674 1804 1913 1966 1870 1856 1807 1572 1483 1418 1199 1172 1234 1291 1258 1437 1461 1549 1568 1605 1816 2096 2111 1854 1953 2086 2038 2292 2230 1872 1698 1715 1626 1502 1410 896 239 167 676 868 785 523 104 78 856 1524 1526 1114 2092 2532 2618
0 0 0 0 0 0 0 0 0 0 0 0 0 0 0 0 0 0 0 0 0 0 30 27 47 91 80 65 32 45 581 720 591 755 1254 1818 1924 1941 1957 1942 1934 1828 1704 1523 1511 1391 1255 1261 1329 1338 1394 1480 1484 1628 1658 1815 2011 2183 2062 2125 2268 2108 1951 1848 1767 1963 1844 1932 1844 1366 882 531 210 604 802 407 548 433 148 679 1455 902 844 1862 2464 2629
0 0 0 0 0 0 0 0 0 0 0 0 0 0 0 0 0 0 0 0 0 0 9 30 4 0 1 0 0 0 186 843 717 650 984 1620 1939 1962 1914 1987 1992 1899 1825 1651 1632 1506 1358 1375 1425 1451 1454 1550 1588 1697 1674 1716 1866 2103 2162 2246 2262 2074 1853 1654 1915 1949 2016 2106 2145 1932 1617 1221 543 830 1320 1270 1355 1405 890 528 1078 1188 943 1624 2236 2494
0 0 0 0 0 0 0 0 0 0 0 0 0 0 0 0 0 0 0 0 0 0 0 0 0 0 0 0 0 0 20 430 520 525 777 1328 1678 1797 1819 1879 1960 1930 1960 1802 1716 1633 1558 1454 1401 1456 1508 1553 1524 1691 1687 1666 1684 1787 2082 2223 2180 2079 1902 1875 2010 2092 2202 2305 2452 2328 2263 2030 1590 1871 1846 1685 1558 1631 1640 1015 883 1171 1133 1349 2102 2509
0 0 0 0 0 0 0 0 0 0 0 0 0 0 0 0 0 0 0 0 0 0 0 0 0 1 1 0 1 1 2 139 252 531 878 1228 1666 1886 1849 1940 1981 1905 2006 1925 1822 1787 1649 1607 1726 1707 1546 1555 1649 1672 1701 1625 1593 1666 1882 2160 2403 2273 2234 1950 2131 2308 2268 2398 2263 2273 2193 1906 1752 1692 1642 1582 1070 1040 1280 928 448 622 778 1089 2182 2520
0 0 0 0 0 0 0 0 0 0 0 0 0 0 0 0 0 0 0 0 0 0 0 0 0 0 3 0 0 0 0 78 289 509 926 1302 1727 1957 1983 1952 2013 1918 1991 1968 1837 1828 1758 1763 1746 1765 1774 1699 1570 1591 1781 1753 1663 1669 1783 2057 2312 2495 2246 1998 2048 2221 2159 2016 1918 1994 1920 1475 1541 1366 1336 1396 969 827 1183 1143 626 271 606 1282 2128 2398
0 0 0 0 0 0 0 0 0 0 0 0 0 0 0 0 0 0 0 0 0 0 0 0 0 0 0 0 0 0 0 25 348 614 853 1039 1773 1777 1899 1855 2036 1956 1976 2079 1957 1852 1830 1954 1943 1938 1923 1794 1588 1809 1744 1808 1773 1873 1993 2244 2356 2340 2272 2318 2199 2160 1984 1910 1819 1924 1853 1629 1596 1119 1348 1812 1693 1288 1553 1623 982 331 942 1894 2395 2298
0 0 0 0 0 0 0 0 0 0 0 0 0 0 0 0 0 0 0 0 0 0 0 0 0 0 0 0 0 0 0 0 172 532 817 689 1486 1805 1883 1763 1982 2003 2019 2086 2090 1998 1912 1966 1970 2078 2098 1897 1682 1720 1797 1965 1926 2088 2223 2495 2570 2555 2561 2392 2284 2152 1986 1866 1693 1867 2169 1954 1679 1463 1402 1949 1818 1670 1834 2010 1653 961 972 1827 2681 2577
0 0 0 0 0 0 0 0 0 0 0 0 0 0 0 0 0 0 0 0 0 0 0 0 0 0 0 0 0 0 0 2 46 33 400 682 820 1630 1732 1793 1765 2049 2108 2098 2138 2075 2018 1939 1888 1885 2051 2092 1822 1700 1934 2004 2121 2245 2399 2560 2704 2750 2686 2513 2311 2055 2055 1896 1773 2004 2091 2205 2059 1807 1652 1847 2151 2111 2434 2270 2260 1768 1413 1365 2325 2631
0 0 0 0 0 0 0 0 0 0 0 0 0 0 0 0 0 0 0 0 0 0 0 0 0 0 0 0 0 0 0 0 0 10 144 431 727 1249 1627 1688 1710 1993 2098 2081 2077 2100 2139 2029 2007 1981 2097 2045 1785 1843 2014 1976 2104 2316 2427 2647 2849 2926 2809 2717 2468 2068 2045 1864 1837 1978 1898 2179 2306 2331 2076 2097 2442 2535 2703 2593 2309 2350 2252 1552 1472 1992
0 0 0 0 0 0 0 0 0 0 0 0 0 0 0 0 0 0 0 0 0 0 0 0 0 0 0 0 0 0 0 0 0 0 58 160 612 1142 1547 1416 1499 1831 2072 2094 2079 2109 2174 2184 2151 2059 2098 2067 2042 2039 2149 2269 2364 2510 2624 2805 3029 2994 2908 2903 2666 2328 2093 1920 1753 1926 1943 2201 2442 2666 2353 2296 2341 2654 2749 2670 2382 2397 2398 2275 1731 2401
0 0 0 0 0 0 0 0 0 0 0 0 0 0 0 0 0 0 0 0 0 0 0 0 0 0 0 0 0 0 0 0 0 0 0 70 368 907 1278 1480 1449 1620 1905 2092 2109 2123 2180 2224 2204 2197 2272 2331 2320 2303 2353 2316 2368 2507 2740 2960 3094 3166 3167 2947 2544 2151 2056 2022 1857 1858 1702 1912 2314 2672 2581 2542 2378 2582 2618 2639 2429 2618 2675 2658 2441 2670
0 0 0 0 0 0 0 0 0 0 0 0 0 0 0 0 0 0 0 0 0 0 0 0 0 0 0 0 0 0 0 0 0 0 0 0 84 256 805 1333 1293 1529 1701 1986 2013 2018 2111 2321 2293 2302 2362 2472 2506 2355 2344 2368 2400 2554 2652 3027 3114 3291 3277 2952 2472 2113 2068 2054 1961 1860 1932 2013 2327 2574 2793 2645 2440 2321 2508 2627 2536 2326 2348 2593 2372 2246
0 0 0 0 0 0 0 0 0 0 0 0 0 0 0 0 0 0 0 0 0 0 0 0 0 0 0 0 0 0 0 0 0 0 0 0 0 10 318 922 1044 1449 1613 1804 1946 2002 2052 2177 2363 2317 2354 2450 2471 2346 2333 2445 2551 2649 2694 3005 3203 3413 3272 3087 2626 2278 2046 2101 1756 1910 1857 2136 2224 2406 2516 2740 2416 2311 2480 2517 2448 2470 1991 1964 2093 2018
0 0 0 0 0 0 0 0 0 0 0 0 0 0 0 0 0 0 0 0 0 0 0 0 0 0 0 0 0 0 0 0 0 0 0 0 0 0 0 214 619 1007 1383 1631 1802 1880 1974 2184 2267 2257 2337 2395 2485 2595 2415 2433 2526 2626 2763 2966 3194 3380 3204 2999 2813 2424 2112 2130 2023 2129 2146 2006 2256 2278 2446 2783 2733 2594 2698 2831 2648 2821 2587 1925 1962 2596
0 0 0 0 0 0 0 0 0 0 0 0 0 0 0 0 0 0 0 0 0 0 0 0 0 0 0 0 0 0 0 0 0 0 0 0 0 0 0 0 302 729 1143 1534 1688 1761 1957 2021 2240 2208 2233 2305 2430 2492 2407 2547 2730 2762 2734 2904 3145 3281 3232 3045 2799 2474 2280 2295 2169 2080 1813 2112 2138 2105 2265 2409 2870 2506 2668 2966 2905 2689 2681 2316 2193 2674
0 0 0 0 0 0 0 0 0 0 0 0 0 0 0 0 0 0 0 0 0 0 0 0 0 0 0 0 0 0 0 0 0 0 0 0 0 0 0 0 50 368 763 1383 1710 1839 1962 2020 2161 2166 2191 2193 2345 2406 2516 2735 2745 2718 2794 2896 3090 3206 3272 3052 2818 2491 2479 2433 2486 2390 2260 2214 2226 1960 2109 2438 2864 2800 2757 2936 2994 2482 2533 2512 2264 2074
0 0 0 0 0 0 0 0 0 0 0 0 0 0 0 0 0 0 0 0 0 0 0 0 0 0 0 0 0 0 0 0 0 0 0 0 0 0 0 0 24 76 334 1179 1579 1796 1902 1927 2107 2176 2072 2096 2275 2513 2574 2631 2699 2711 2783 2821 2908 3040 3091 3067 2804 2726 2853 2724 2586 2560 2354 2252 2255 2269 2263 2569 2897 3033 2762 2705 2800 2530 2208 2426 2404 2658
0 0 0 0 0 0 0 0 0 0 0 0 0 0 0 0 0 0 0 0 0 0 0 0 0 0 0 0 0 0 0 0 0 0 0 0 0 0 0 1 38 94 243 734 1368 1714 1861 1896 1953 2036 2042 2069 2172 2376 2479 2536 2536 2538 2587 2799 2869 2894 3018 3036 2918 2934 2942 2796 2577 2359 2407 2470 2381 2466 2453 2520 2589 2715 2864 2768 2556 2687 2188 2356 2422 2577
0 0 0 0 0 0 0 0 0 0 0 0 0 0 2 0 0 0 0 0 0 0 0 0 0 0 0 0 0 0 0 0 0 0 0 0 0 0 0 0 0 95 281 544 1229 1634 1786 1811 1803 1977 2009 1933 2046 2345 2371 2358 2405 2373 2570 2744 2772 2835 2903 2945 2841 2856 3014 2922 2864 2718 2584 2503 2561 2595 2558 2558 2553 2805 2905 2809 2640 2702 2414 2493 2475 2496
0 0 0 4 11 0 0 0 0 0 0 0 0 0 0 0 0 0 0 0 0 0 0 0 0 0 0 0 0 0 0 0 0 0 0 0 0 0 0 0 0 94 504 784 992 1299 1593 1802 1837 1852 1933 1916 1977 2168 2144 2137 2256 2393 2526 2561 2606 2611 2662 2693 2743 2846 3040 3001 2826 2792 2787 2673 2551 2633 2737 2667 2841 2787 2859 2863 2973 2797 2697 2470 2734 2746
0 2 5 0 0 5 2 0 0 0 0 0 2 2 0 0 6 0 0 0 0 0 0 0 0 0 0 0 0 0 0 0 0 0 0 0 0 0 0 0 0 124 628 758 958 1026 1330 1727 1833 1784 1970 1927 1891 2049 2109 2168 2169 2278 2518 2506 2525 2417 2561 2522 2670 2704 3062 3044 3066 3166 3127 2904 2871 2877 2889 2927 2774 2669 2721 2917 2984 2724 2789 2503 2521 2873
0 0 0 0 0 0 0 0 0 0 0 0 0 0 2 2 6 2 0 0 0 0 0 0 0 0 0 0 0 0 0 0 0 0 0 0 0 0 0 0 0 110 688 645 641 692 1158 1673 1934 1900 1974 2003 1935 2038 2137 2143 2237 2357 2361 2382 2400 2375 2475 2490 2587 2714 3055 3144 3133 3124 3177 3210 3128 3084 3104 2840 2666 2690 2681 2573 2742 2788 2768 2684 2426 2629
0 2 0 11 9 0 0 6 9 8 0 0 0 3 1 0 0 0 0 0 0 0 0 0 0 0 0 0 0 0 0 0 0 0 0 0 0 0 0 0 0 206 954 820 663 838 1112 1390 1828 1991 2013 2232 2118 1933 2158 2140 2202 2277 2229 2247 2283 2334 2367 2526 2609 2707 3000 3154 3062 3094 3238 3258 3068 3046 3010 2807 2634 2670 2610 2455 2494 2758 2784 2740 2430 2341
1 1 4 7 5 2 1 8 26 18 0 0 10 33 0 0 2 0 0 1 0 0 0 1 0 0 0 0 0 0 0 0 0 0 0 0 0 0 0 0 229 963 1592 1619 1182 1134 1151 1536 2010 2200 2220 2317 2085 1938 2198 2333 2220 2162 2110 2145 2202 2377 2447 2531 2562 2664 2944 3046 3004 3207 3310 3424 3128 2990 3034 2901 2706 2580 2538 2414 2416 2635 2821 2724 2630 2329
1 2 8 2 18 31 102 11 0 0 0 22 1 0 0 0 0 0 4 7 0 0 0 0 6 1 0 0 0 0 0 0 0 0 0 0 0 0 0 0 15 127 538 872 1168 1204 1445 1771 2104 2195 2373 2210 2033 1888 2098 2163 2139 2036 2177 2248 2203 2317 2416 2536 2579 2726 2886 3098 2939 3182 3503 3438 3116 3065 2944 3090 2766 2586 2563 2474 2385 2423 2665 2778 2653 2441
2 4 0 4 0 0 0 0 0 0 0 0 0 0 0 0 0 0 2 4 7 30 0 4 2 0 0 0 0 0 0 0 0 0 0 0 6 1 0 289 9 10 218 530 876 1146 1483 1813 2248 2462 2446 2224 1981 1887 1988 2138 2058 2093 2186 2208 2159 2243 2363 2520 2582 2748 2911 3060 3051 3307 3451 3516 3440 3042 3132 3121 3237 2978 2695 2607 2459 2502 2628 2867 2757 2448
10 0 0 0 0 0 0 0 2 4 0 0 0 0 0 0 0 0 0 0 32 8 0 9 74 28 0 0 0 0 2 0 0 0 0 0 0 10 11 0 0 0 97 468 1045 1483 1649 1841 2612 2729 2705 2321 1978 1875 2012 2070 2052 2153 2221 2233 2257 2159 2382 2571 2624 2700 2826 3074 3143 3369 3592 3643 3510 3316 3273 3281 3416 3241 2956 2874 2836 2794 2841 2972 2870 2535
1 0 0 0 0 0 0 0 0 6 4 0 0 0 0 0 0 0 0 0 0 0 0 14 11 5 0 0 0 6 25 0 0 0 0 36 105 502 511 207 18 0 0 39 881 1394 2111 2151 2628 2873 2861 2658 2096 2039 1893 2019 2163 2142 2180 2234 2196 2255 2321 2522 2659 2838 2937 3080 3211 3432 3667 3732 3681 3572 3447 3445 3463 3500 3281 3106 3111 2980 2951 2972 2999 2905
0 0 0 2 14 0 0 0 0 1 5 3 0 0 0 0 0 0 0 0 0 0 0 0 0 0 0 0 420 418 152 0 0 0 299 592 848 936 955 551 182 592 688 906 13 907 1530 2156 2405 2927 2945 2846 2218 1966 1866 2096 2232 2136 2133 2304 2273 2305 2295 2506 2873 3001 3039 3202 3325 3501 3777 3827 3730 3656 3587 3571 3600 3664 3584 3345 3301 3243 3209 3212 3246 3172
2 0 0 2 4 0 0 0 0 0 9 11 3 0 0 0 0 0 0 0 0 0 19 6 1 0 0 262 421 337 70 0 0 336 842 1357 1677 1670 1911 1716 1790 2156 1990 2137 2356 1041 429 1638 1960 2856 2904 2660 2178 2021 1904 2199 2222 2199 2134 2335 2302 2233 2249 2505 2802 2950 3196 3182 3374 3720 3942 3892 3857 3787 3721 3661 3708 3848 3699 3592 3493 3477 3446 3352 3381 3421
9 0 0 1 1 0 0 0 1 4 0 2 4 2 0 0 0 0 0 269 172 78 9 24 2 49 326 147 193 356 706 625 374 482 1559 1754 1924 1688 1744 1860 2032 2246 2450 2636 2807 3052 1997 414 1122 2478 2710 2343 2043 1899 1891 2154 2164 2269 2259 2521 2467 2325 2261 2540 2788 3080 3288 3280 3512 3840 4011 3953 3905 3811 3837 3898 3875 3920 3820 3690 3594 3584 3556 3373 3416 3486
11 1 0 1 5 0 0 10 11 12 30 2 13 1 3 0 0 0 83 316 205 64 40 96 141 25 10 0 134 346 514 925 1588 1612 1451 1896 1953 1994 1895 1903 2159 2286 2514 2667 2971 3192 2687 1560 520 1163 2500 2641 2355 1800 1934 2182 2114 2274 2241 2512 2559 2453 2626 2752 2962 3278 3263 3408 3709 3894 4053 4003 3934 3970 3922 3949 3935 3954 3932 3887 3796 3711 3632 3537 3586 3584
6 1 0 0 1 0 0 1 1 3 6 43 119 82 23 2 2 66 308 96 84 73 41 46 71 18 0 0 23 126 274 520 942 1363 1348 1441 1715 1696 1784 1825 2133 2338 2518 2688 2906 3107 3012 1650 572 495 1755 2402 2058 1929 2057 2094 2130 2372 2393 2644 2594 2546 2722 2927 3107 3335 3419 3503 3784 3922 3992 3980 3971 3993 4000 3991 3982 3938 3985 3889 3934 3805 3656 3472 3500 3622
12 0 1 0 0 5 0 5 9 11 7 260 113 117 184 175 86 238 120 47 48 29 17 23 4 0 1 0 8 90 278 514 796 1250 1305 1445 1534 1697 1617 1775 1928 2138 2319 2522 2716 3007 3263 2359 764 198 774 2292 2005 1790 1934 2152 2030 2244 2366 2598 2607 2644 2825 3074 3284 3512 3566 3528 3796 3933 3889 3957 3963 3971 3964 3995 3992 3927 3884 3929 3903 3908 3697 3419 3348 3433
10 0 0 2 1 0 1 10 5 10 29 49 108 180 225 242 223 68 110 39 0 0 0 1 1 2 0 0 0 67 406 723 1047 1373 1012 1366 1107 1088 1316 1528 1709 1937 2082 2300 2478 2842 3000 2418 1100 481 836 1970 1782 1587 1989 2114 1990 2060 2165 2574 2647 2681 2889 3266 3378 3534 3671 3541 3732 3846 3775 3653 3685 3860 3845 3883 3850 3818 3818 3864 3837 3825 3759 3561 3345 3267
0 0 0 0 10 0 4 10 18 18 0 52 332 147 142 181 127 58 115 20 1 0 0 0 0 0 0 0 0 408 583 1206 1282 1183 1192 1133 1129 1164 1070 1256 1654 1931 2004 2252 2608 2750 2169 1366 1111 1052 1208 2029 1848 1609 1976 2159 2038 2247 2620 2699 2754 2796 3113 3150 3148 3441 3667 3566 3654 3615 3601 3611 3653 3765 3831 3950 3870 3817 3731 3732 3815 3811 3697 3585 3304 2971
5 0 0 0 1 11 13 7 9 7 69 238 76 174 148 88 155 188 236 258 22 36 0 0 0 11 138 68 154 341 1319 1310 1064 991 1169 1142 1094 1024 928 1092 1610 1865 2086 2266 2478 2434 1419 1288 1403 1179 1626 2184 1919 1924 2384 2338 2242 2339 2948 2909 2873 2978 3068 3027 3108 3376 3566 3490 3493 3527 3550 3585 3597 3720 3774 3835 3805 3738 3713 3744 3759 3656 3614 3518 3398 3135
4 2 0 0 4 21 43 4 6 12 1 95 39 32 99 103 125 350 206 37 3 89 108 36 0 39 327 446 565 477 692 809 705 721 848 975 1131 1024 1010 1146 1622 1863 1968 2188 2345 2690 2131 1615 1793 1466 1986 1985 1966 2169 2687 2368 2402 2628 3071 2965 2728 2754 2923 2990 3170 3378 3402 3356 3387 3541 3490 3456 3660 3735 3693 3830 3788 3824 3724 3665 3572 3632 3678 3610 3400 3301
24 15 0 0 0 1 3 18 33 58 200 50 45 36 47 168 318 302 61 15 2 46 0 60 2 82 358 434 479 682 284 66 247 551 854 1085 1253 1311 1343 1367 1379 1651 1906 1914 2351 2611 2208 2012 2038 2036 1794 1933 2255 2412 2580 2300 2471 2691 3059 2915 2914 2872 2786 3014 3124 3244 3401 3413 3352 3386 3448 3434 3602 3662 3625 3723 3859 3783 3648 3629 3599 3464 3585 3541 3311 3374
9 6 0 0 1 0 3 4 3 37 256 7 106 38 56 204 360 155 58 8 9 20 6 50 0 78 236 428 388 397 366 316 418 684 941 1175 1270 1311 1422 1416 1406 1349 1723 2000 2207 2555 2722 1994 2144 1950 1932 2334 2654 2557 2514 2582 2768 3376 3334 3224 3095 3086 2873 3036 3228 3437 3554 3561 3363 3383 3413 3392 3556 3620 3509 3671 3876 3931 3862 3762 3595 3544 3635 3480 3517 3620
33 41 9 0 0 0 7 8 18 19 57 0 2 130 9 172 61 8 13 0 88 87 47 78 10 80 213 399 352 370 336 430 672 904 1082 1259 1524 1638 1624 1540 1529 1333 1497 1913 2146 2302 2600 2612 2017 2071 2067 2462 2662 2665 2683 2791 3342 3540 3478 3414 3455 3245 3074 3172 3426 3639 3740 3814 3505 3453 3535 3593 3636 3669 3503 3576 3860 4043 4048 3930 3733 3735 3804 3815 3828 3915
30 7 70 88 2 10 8 22 55 146 39 28 2 1 4 2 12 7 2 7 1 89 67 79 23 74 166 353 442 491 597 753 889 1114 1304 1433 1565 1691 1641 1766 1731 1626 1438 1625 1875 2510 2352 2809 3050 2182 2083 2549 2557 2533 2786 2978 3487 3687 3826 3805 3739 3272 3203 3562 3769 3976 4058 3997 3776 3775 3819 3808 3802 3937 3748 3876 3968 4186 4301 4240 4071 4049 4063 4213 4076 3973
5 3 1 38 113 238 102 119 27 13 6 2 11 8 10 15 8 19 7 5 37 100 80 100 115 131 50 391 440 528 760 889 1106 1359 1598 1718 1785 1858 1865 1800 1782 1723 1583 1669 1990 2513 2605 2567 3205 3193 2415 2405 2434 2611 2879 2959 3672 4052 4039 4041 3865 3515 3572 3961 4208 4382 4358 4220 4058 4068 4092 4194 4177 4233 4130 4051 4156 4398 4498 4576 4445 4374 4430 4420 4150 3869
1 82 195 39 84 14 0 0 7 7 6 5 1 1 1 4 7 4 2 5 51 84 96 106 142 109 72 266 441 395 582 920 1189 1496 1628 1637 1719 1782 1798 1960 2082 2054 1973 1910 1776 2270 2647 2680 2782 3319 3625 3472 3126 3046 3202 3406 3947 4250 4149 4226 4151 3881 4199 4686 4858 4744 4648 4532 4313 4469 4358 4376 4377 4585 4458 4392 4369 4565 4727 4728 4596 4527 4626 4352 4066 4025
22 11 19 3 4 2 42 11 6 7 12 13 2 2 5 3 7 2 16 12 10 47 71 64 148 91 0 31 357 449 473 752 819 1338 1640 1550 1666 1829 2001 2164 2216 2268 2249 1991 1898 1947 2234 2710 3026 3059 3227 3507 3611 3616 3092 3392 3514 3986 4019 4446 4339 4193 4836 4916 5037 4868 4759 4770 4569 4641 4466 4544 4456 4598 4664 4563 4524 4683 4817 4747 4783 4718 4761 4374 4152 4141
5 8 2 1 2 2 20 8 4 2 10 8 17 28 18 13 6 5 8 18 8 33 61 0 4 156 0 157 317 349 456 611 809 1232 1578 1581 1754 1780 1998 2161 2263 2450 2407 2281 2386 2174 2059 2138 2539 3076 3220 3228 3437 3997 4186 4377 4434 4669 4862 4473 3994 3924 4551 4550 4782 4679 4661 4708 4639 4759 4768 4688 4502 4532 4774 4720 4603 4557 4739 4723 4696 4882 4855 4728 4453 4444
2 17 7 1 1 3 6 15 3 1 7 19 18 42 16 2 0 0 8 5 7 18 22 46 0 0 0 2 27 350 349 522 845 938 1145 1494 1760 1756 1871 2079 2290 2557 2536 2546 2601 2521 2490 2221 2083 2325 2686 3033 3500 3658 3845 3929 4139 4340 4448 4162 3994 4142 4622 4648 4623 4507 4684 4692 4706 4661 4727 4754 4641 4605 4681 4935 4904 4822 5955 6021 4948 4910 4892 4850 5071 4901
6 2 1 23 28 9 9 14 7 3 6 1 0 1 15 5 4 1 1 12 35 25 18 12 52 57 0 0 248 336 480 686 840 964 1021 1275 1325 1703 1725 2125 2299 2403 2605 2732 2857 2748 2527 2344 2133 2152 2177 2441 3012 3207 3574 3884 4238 4408 4602 4873 4982 5066 5263 4926 4653 4554 4814 4829 4895 4870 4842 4754 4775 4585 4544 4906 5097 4587 4271 4234 4483 4385 4491 5138 4636 4437
0 0 4 9 5 6 6 19 11 10 7 2 7 8 4 3 2 3 2 2 28 25 21 10 26 5 0 1 42 290 449 662 799 825 1116 1252 1260 1562 1760 1926 2216 2535 2544 2726 2818 2736 2674 2612 2418 2280 2371 2467 2642 2682 2852 3060 3567 3926 4508 4897 5294 5316 4984 5167 4922 4610 4871 4758 4975 5188 5100 5202 5176 5046 4906 5023 5430 5199 4396 4198 4314 4387 4314 4336 4636 4486
Wind_Speed
nan nan nan nan nan nan nan nan nan nan nan nan nan nan nan nan nan nan nan nan nan nan 12 11 13 14 8 6 7 9 11 9 9 8 8 6 6 5 3 3 5 7 7 6 7 6 4 1 2 4 6 5 4 6 6 5 5 6 8 8 7 9 8 8 8 8 9 9 9 9 9 9 9 10 11 12 12 13 12 11 10 9 9 9 9 10
nan nan nan nan nan nan nan nan nan nan nan nan nan nan nan nan nan nan nan nan nan nan 18 16 16 14 14 13 13 14 12 10 10 9 8 7 6 6 4 3 4 6 4 7 5 5 4 0 1 2 5 3 2 5 6 6 6 6 7 7 8 9 8 9 9 10 10 10 10 8 8 8 8 8 10 11 12 12 nan 9 10 9 10 10 10 10
nan nan nan nan nan nan nan nan nan nan nan nan nan nan nan nan nan nan nan nan nan nan nan nan nan nan nan nan nan nan 14 13 12 11 10 10 8 8 6 3 3 4 4 5 5 6 4 4 2 2 4 3 2 4 6 7 7 7 8 9 9 9 9 9 9 10 10 10 9 7 7 6 7 7 8 10 10 11 11 9 9 9 9 10 10 11
nan nan nan nan nan nan nan nan nan nan nan nan nan nan nan nan nan nan nan nan nan nan nan nan nan nan nan nan nan nan 17 15 13 12 12 12 10 10 8 6 4 4 4 4 4 6 5 4 1 2 4 5 4 5 5 6 7 9 10 10 10 10 10 10 9 9 8 8 7 8 8 6 7 6 7 9 9 9 10 10 8 9 9 10 11 11
nan nan nan nan nan nan nan nan nan nan nan nan nan nan nan nan nan nan nan nan nan nan nan nan nan nan nan nan nan nan nan 18 16 15 14 13 13 12 13 9 7 7 7 5 4 2 2 3 3 2 4 5 5 4 4 6 7 12 9 10 11 12 11 11 9 7 7 6 6 7 8 7 6 8 7 8 9 9 10 11 10 9 9 10 11 11
nan nan nan nan nan nan nan nan nan nan nan nan nan nan nan nan nan nan nan nan nan nan nan nan nan nan nan nan nan nan nan 20 19 18 15 15 16 16 12 10 9 7 8 8 7 5 3 2 2 3 4 4 5 5 6 7 8 10 11 11 12 14 13 11 8 6 6 6 6 6 7 7 8 8 9 9 9 9 9 11 10 8 9 9 11 11
nan nan nan nan nan nan nan nan nan nan nan nan nan nan nan nan nan nan nan nan nan nan nan nan nan nan nan nan nan nan nan nan 21 19 18 19 19 16 14 13 11 9 9 8 7 6 4 3 2 3 4 5 6 7 8 9 9 9 12 12 13 14 14 11 8 4 6 7 8 7 8 9 9 10 11 11 10 10 10 10 9 8 7 8 9 10
nan nan nan nan nan nan nan nan nan nan nan nan nan nan nan nan nan nan nan nan nan nan nan nan nan nan nan nan nan nan nan nan 22 20 20 23 19 15 14 13 11 10 10 10 8 6 4 4 4 3 2 5 7 8 9 9 9 8 11 12 12 15 14 12 9 5 7 9 10 10 10 11 10 9 9 7 8 8 10 9 8 8 7 6 8 10
nan nan nan nan nan nan nan nan nan nan nan nan nan nan nan nan nan nan nan nan nan nan nan nan nan nan nan nan nan nan nan nan 23 21 22 22 19 15 14 13 11 10 10 10 8 8 5 2 2 1 2 4 5 7 9 9 10 11 12 13 13 13 13 11 7 8 9 11 12 11 12 11 10 8 7 6 6 6 7 7 7 7 8 8 8 10
nan nan nan nan nan nan nan nan nan nan nan nan nan nan nan nan nan nan nan nan nan nan nan nan nan nan nan nan nan nan nan nan nan nan 22 21 19 17 16 14 13 14 12 9 8 8 7 4 1 1 4 5 6 7 10 11 12 12 13 12 11 11 13 11 8 9 9 9 11 12 11 9 8 7 6 7 6 6 6 6 6 7 8 9 10 10
nan nan nan nan nan nan nan nan nan nan nan nan nan nan nan nan nan nan nan nan nan nan nan nan nan nan nan nan nan nan nan nan nan nan 25 24 21 19 17 16 17 16 13 11 8 8 8 8 6 4 2 2 5 8 8 9 11 11 11 12 11 11 13 12 10 9 9 9 10 11 9 7 6 4 5 6 7 7 7 8 7 7 8 10 12 11
nan nan nan nan nan nan nan nan nan nan nan nan nan nan nan nan nan nan nan nan nan nan nan nan nan nan nan nan nan nan nan nan nan nan nan 24 24 22 20 19 16 15 15 12 11 10 11 11 8 5 3 2 2 5 7 8 10 10 11 12 11 11 11 12 11 10 10 10 9 9 8 7 7 6 6 6 7 7 7 8 9 9 10 11 12 12
nan nan nan nan nan nan nan nan nan nan nan nan nan nan nan nan nan nan nan nan nan nan nan nan nan nan nan nan nan nan nan nan nan nan nan nan 26 24 22 20 20 19 18 16 13 13 12 10 8 7 6 4 3 3 4 6 8 9 10 10 10 10 10 11 11 11 10 9 8 8 7 7 8 8 8 7 8 8 9 9 9 8 10 10 11 12
nan nan nan nan nan nan nan nan nan nan nan nan nan nan nan nan nan nan nan nan nan nan nan nan nan nan nan nan nan nan nan nan nan nan nan nan nan 28 25 24 23 22 20 18 15 13 12 10 9 10 9 7 5 3 3 5 8 10 11 10 10 11 12 12 12 11 10 9 8 8 8 9 10 10 9 9 9 9 10 10 9 9 9 9 10 11
nan nan nan nan nan nan nan nan nan nan nan nan nan nan nan nan nan nan nan nan nan nan nan nan nan nan nan nan nan nan nan nan nan nan nan nan nan nan 29 28 25 24 22 19 15 12 10 10 11 12 11 9 7 6 4 6 8 10 11 11 11 12 12 13 12 13 10 10 9 9 9 10 12 12 11 11 11 10 10 10 10 10 10 10 11 13
nan nan nan nan nan nan nan nan nan nan nan nan nan nan nan nan nan nan nan nan nan nan nan nan nan nan nan nan nan nan nan nan nan nan nan nan nan nan nan 30 27 25 22 19 15 12 9 9 11 13 14 13 12 10 7 6 7 9 11 11 11 12 13 14 14 13 12 11 11 9 9 10 12 14 13 13 12 12 11 11 11 10 9 11 13 14
nan nan nan nan nan nan nan nan nan nan nan nan nan nan nan nan nan nan nan nan nan nan nan nan nan nan nan nan nan nan nan nan nan nan nan nan nan nan nan nan 27 26 24 20 16 13 10 9 10 12 14 15 16 14 11 8 7 8 12 12 12 13 15 14 15 15 15 13 11 10 10 11 12 12 11 12 11 10 11 11 11 10 9 11 13 14
nan nan nan nan nan nan nan nan nan nan nan nan nan nan nan nan nan nan nan nan nan nan nan nan nan nan nan nan nan nan nan nan nan nan nan nan nan nan nan nan nan 26 24 19 16 15 14 11 9 10 12 15 16 16 14 12 9 10 12 13 13 13 13 15 16 16 17 15 14 13 12 12 12 12 12 13 13 12 12 11 11 10 10 12 13 13
nan nan nan nan nan nan nan nan nan nan nan nan nan nan nan nan nan nan nan nan nan nan nan nan nan nan nan nan nan nan nan nan nan nan nan nan nan nan nan nan nan nan 24 22 20 20 17 14 12 11 13 14 15 16 16 15 13 11 12 14 13 12 13 16 19 20 21 19 19 17 14 12 13 14 14 14 14 13 12 10 10 9 11 12 13 12
nan nan nan nan nan nan nan nan nan nan nan nan nan nan nan nan nan nan nan nan nan nan nan nan nan nan nan nan nan nan nan nan nan nan nan nan nan nan nan nan nan nan 25 25 23 21 17 15 13 13 13 16 17 17 18 18 15 12 11 14 14 15 17 18 18 20 20 19 19 18 16 15 16 15 15 15 13 14 13 12 12 11 10 12 12 11
nan nan nan nan nan nan nan nan nan nan nan nan nan nan nan nan nan nan nan nan nan nan nan nan nan nan nan nan nan nan nan nan nan nan nan nan nan nan nan nan nan nan 27 26 25 22 18 16 15 14 14 16 17 17 18 18 17 14 13 13 14 15 15 15 16 18 20 22 20 18 16 16 16 14 15 14 14 15 15 15 14 13 13 13 13 12
nan nan nan nan nan nan nan nan nan nan nan nan nan nan nan nan nan nan nan nan nan nan nan nan nan nan nan nan nan nan nan nan nan nan nan nan nan nan nan nan nan nan 26 25 25 22 20 18 16 16 19 20 20 19 18 18 19 17 13 12 14 16 15 15 16 18 20 21 22 19 18 17 18 17 17 15 15 15 16 16 16 15 14 13 13 12
nan nan nan nan nan nan nan nan nan nan nan nan nan nan nan nan nan nan nan nan nan nan nan nan nan nan nan nan nan nan nan nan nan nan nan nan nan nan nan nan nan 27 25 25 24 23 21 20 19 20 22 21 20 19 18 20 20 18 15 14 14 14 14 15 16 19 22 22 22 21 22 20 20 19 17 15 17 15 16 17 16 16 15 14 14 13
nan nan nan nan nan nan nan nan nan nan nan nan nan nan nan nan nan nan nan nan nan nan nan nan nan nan nan nan nan nan nan nan nan nan nan nan nan nan nan nan nan 27 25 25 25 24 25 25 24 24 23 23 22 21 20 20 20 19 18 15 14 12 15 17 18 20 21 21 21 22 24 22 21 19 18 16 18 16 16 18 18 17 15 15 15 14
nan nan nan nan nan nan nan nan nan nan nan nan nan nan nan nan nan nan nan nan nan nan nan nan nan nan nan nan nan nan nan nan nan nan nan nan nan nan nan nan nan 31 31 30 29 28 28 26 25 23 21 22 23 22 22 22 22 21 20 17 15 14 16 18 20 20 20 20 21 23 23 22 21 20 19 18 19 16 17 17 18 19 16 16 15 14
nan nan nan nan nan nan nan nan nan nan nan nan nan nan nan nan nan nan nan nan nan nan nan nan nan nan nan nan nan nan nan nan nan nan nan nan nan nan nan nan 42 41 39 37 34 31 27 26 25 26 23 22 23 24 24 24 23 22 21 18 17 18 18 19 20 20 21 21 22 23 22 22 21 19 19 19 19 18 18 19 18 19 19 16 15 15
nan nan nan nan nan nan 47 nan nan nan nan nan nan nan nan nan nan nan nan nan nan nan nan nan nan nan nan nan nan nan nan nan nan nan nan nan nan nan nan nan nan 39 39 37 35 34 33 31 27 26 24 22 23 25 26 25 24 23 23 21 20 20 20 20 21 21 22 22 21 23 22 22 21 21 20 21 21 21 21 20 19 19 19 18 16 16
nan nan nan nan nan nan nan nan nan nan nan nan nan nan nan nan nan nan nan nan nan nan nan nan nan nan nan nan nan nan nan nan nan nan nan nan nan nan nan 50 nan nan 44 42 38 34 31 29 27 27 25 23 24 25 27 26 24 24 23 22 22 23 22 22 21 21 22 23 22 22 21 22 22 22 22 23 24 23 22 22 22 21 22 20 18 16
nan nan nan nan nan nan nan nan nan nan nan nan nan nan nan nan nan nan nan nan nan nan nan nan nan nan nan nan nan nan nan nan nan nan nan nan nan nan nan nan nan nan nan 42 39 36 33 31 30 27 26 24 22 23 25 26 25 25 24 22 22 23 23 23 22 22 23 24 22 22 23 24 25 25 24 24 25 24 23 24 24 25 24 22 20 20
nan nan nan nan nan nan nan nan nan nan nan nan nan nan nan nan nan nan nan nan nan nan nan nan nan nan nan nan nan nan nan nan nan nan nan nan 56 58 57 57 nan nan nan nan 41 37 34 31 29 27 26 24 21 21 23 26 26 25 23 21 22 23 24 25 24 24 23 23 22 24 25 26 27 27 26 25 24 24 25 25 26 26 24 22 21 22
nan nan nan nan nan nan nan nan nan nan nan nan nan nan nan nan nan nan nan nan nan nan nan nan nan nan nan nan 52 46 43 nan nan nan 52 55 58 59 60 61 61 61 61 58 nan 43 39 36 32 30 27 23 21 20 23 25 26 26 22 21 22 23 25 26 26 25 24 24 24 26 27 28 27 27 26 25 25 26 25 26 27 27 26 25 24 23
nan nan nan nan nan nan nan nan nan nan nan nan nan nan nan nan nan nan nan nan nan nan nan nan nan nan nan 54 52 46 nan nan nan 46 51 55 60 61 61 63 65 64 63 60 58 54 47 40 35 32 26 22 21 22 23 26 27 26 23 22 22 23 25 26 26 26 26 25 26 27 28 28 27 26 26 26 25 26 25 26 27 26 26 25 25 25
nan nan nan nan nan nan nan nan nan nan nan nan nan nan nan nan nan nan nan 67 68 nan nan nan nan nan 59 56 52 49 47 45 42 44 50 54 58 60 61 62 64 64 64 62 59 54 48 44 38 32 27 24 25 24 21 24 26 24 24 24 24 25 26 26 26 27 27 27 27 27 28 28 27 26 26 26 26 27 27 25 25 25 25 24 25 26
nan nan nan nan nan nan nan nan nan nan nan nan nan nan nan nan nan nan nan 65 68 nan nan nan 68 nan nan nan 52 51 48 46 46 45 44 48 53 58 60 61 62 63 62 61 59 56 53 48 43 36 29 27 25 22 21 24 26 26 28 30 29 27 26 27 27 28 28 28 27 27 27 27 26 26 25 26 26 26 25 24 23 23 24 25 26 24
nan nan nan nan nan nan nan nan nan nan nan nan 62 nan nan nan nan nan 75 nan nan nan nan nan nan nan nan nan nan 49 47 41 39 39 39 45 50 51 55 58 60 61 60 59 57 56 53 49 42 37 33 27 25 27 27 27 29 33 32 31 29 28 28 28 28 29 29 28 26 27 27 26 25 25 25 25 25 25 23 22 23 23 24 24 24 23
nan nan nan nan nan nan nan nan nan nan nan 56 54 54 61 63 nan 72 73 nan nan nan nan nan nan nan nan nan nan nan 47 41 36 36 38 43 47 48 50 52 55 57 58 58 58 55 51 46 41 36 33 32 31 31 28 27 30 33 32 32 30 29 29 30 28 29 31 28 25 26 27 26 25 25 25 24 23 22 21 21 22 22 23 23 23 23
nan nan nan nan nan nan nan nan nan nan nan nan 46 51 56 58 60 nan 62 nan nan nan nan nan nan nan nan nan nan nan 46 41 34 35 41 50 47 46 46 47 49 52 55 56 55 54 50 42 39 37 38 37 34 33 30 31 32 33 32 31 30 29 30 29 28 29 30 27 24 25 26 25 24 24 23 23 21 19 19 21 21 22 24 22 21 22
nan nan nan nan nan nan nan nan nan nan nan nan 56 53 56 67 70 nan 66 nan nan nan nan nan nan nan nan nan nan 55 47 37 36 37 54 56 50 48 47 44 44 47 50 51 51 48 44 40 38 37 37 35 33 33 34 33 34 34 32 31 31 29 29 26 26 29 30 26 24 25 26 26 25 24 23 22 20 19 19 20 21 22 22 20 20 19
nan nan nan nan nan nan nan nan nan nan nan 50 nan 56 61 nan 69 68 61 56 nan nan nan nan nan nan 68 nan 61 55 41 35 38 50 58 56 52 47 45 43 41 43 44 45 45 45 42 39 38 37 38 37 37 39 39 37 36 34 33 31 29 27 26 23 25 28 28 25 25 25 26 26 25 24 22 20 19 19 19 19 20 21 21 20 20 19
nan nan nan nan nan nan nan nan nan nan nan nan nan nan nan 65 68 62 57 nan nan nan 64 nan nan nan 69 65 60 56 56 47 51 53 55 53 50 45 42 42 42 41 40 39 41 42 39 36 36 36 36 36 38 41 40 39 38 36 34 30 28 25 22 21 24 27 26 26 26 25 26 27 25 23 21 19 19 19 19 20 20 19 19 19 19 19
nan nan nan nan nan nan nan nan nan nan 44 nan nan nan nan 58 58 54 nan nan nan nan nan nan nan nan 70 67 63 56 55 nan 51 51 51 49 47 45 44 44 42 39 39 39 40 39 35 34 32 33 33 36 38 39 39 39 40 39 36 32 28 23 19 21 27 29 27 26 25 25 25 26 25 23 21 20 20 20 19 19 18 18 18 18 18 18
nan nan nan nan nan nan nan nan nan nan 50 nan 54 nan nan 50 52 59 nan nan nan nan nan nan nan nan 70 67 62 57 56 57 55 53 53 49 44 44 44 45 44 41 39 39 38 37 36 30 28 29 30 33 33 35 37 40 42 42 37 31 25 22 24 27 30 30 28 26 25 24 24 24 24 23 22 21 21 20 18 18 18 18 18 18 19 18
nan nan nan nan nan nan nan nan nan nan nan nan nan 43 nan 49 nan nan nan nan nan nan nan nan nan nan 71 68 64 60 59 60 59 58 56 51 48 48 48 48 46 45 44 42 40 38 35 31 26 25 26 29 29 31 34 37 40 39 34 26 24 28 29 30 31 30 27 26 25 24 23 23 23 23 22 21 20 19 18 19 18 18 18 18 18 18
nan nan nan nan nan nan nan nan nan 42 nan nan nan nan nan nan nan nan nan nan nan nan nan nan nan nan 70 68 64 62 61 62 62 62 58 52 50 53 52 49 49 49 49 47 41 39 32 27 26 24 24 27 28 29 31 33 36 34 28 25 31 33 32 32 31 30 27 26 25 24 23 23 22 22 21 20 19 18 18 18 18 17 18 17 17 17
nan nan nan nan 26 31 34 38 nan nan nan nan nan nan nan nan nan nan nan nan nan 62 nan 60 63 64 nan 68 65 63 63 64 64 63 58 54 54 55 53 53 53 54 52 51 48 42 34 27 27 30 29 28 28 30 29 30 31 31 30 33 35 34 33 33 32 29 27 26 25 23 22 22 22 20 20 19 18 17 16 16 16 16 16 16 15 13
nan nan 19 nan nan nan nan nan nan nan nan nan nan nan nan nan nan nan nan nan nan nan nan 58 62 63 nan 65 65 63 64 66 67 64 61 58 58 58 57 58 60 59 56 53 51 45 38 30 27 27 31 35 35 34 32 32 33 33 35 37 36 35 34 33 31 29 28 26 24 22 22 21 20 18 17 17 17 17 17 17 16 16 17 16 15 14
nan nan nan nan nan nan nan nan nan nan nan nan nan nan nan nan nan nan nan nan nan nan nan nan 60 nan nan nan 65 63 62 65 67 65 62 61 61 61 62 63 64 60 57 56 53 50 43 38 34 33 31 35 36 36 36 36 36 37 37 38 36 35 35 32 30 30 28 26 25 24 23 21 20 19 18 17 19 19 19 19 19 18 18 18 17 17
nan nan nan nan nan nan nan nan nan nan nan nan nan nan nan nan nan nan nan nan nan nan nan nan nan 59 nan 60 64 65 63 65 68 66 64 65 64 62 63 66 67 63 61 59 57 54 50 45 43 41 39 36 37 39 39 39 40 38 38 37 36 34 34 31 30 29 28 28 28 28 25 23 23 21 22 21 21 22 22 21 20 20 20 20 20 20
nan nan nan nan nan nan nan nan nan nan nan nan nan nan nan nan nan nan nan nan nan nan nan nan nan nan nan nan nan 65 65 65 67 67 66 66 66 65 65 67 66 64 61 60 56 55 52 50 47 45 46 47 44 41 40 40 40 39 37 37 36 36 34 32 31 31 31 32 31 30 29 28 27 25 25 26 25 27 34 29 24 22 23 23 23 22
nan nan nan nan nan nan nan nan nan nan nan nan nan nan nan nan nan nan nan nan nan nan nan nan nan nan nan nan 57 61 66 65 68 68 68 69 68 67 67 69 66 67 65 60 54 56 55 53 51 49 49 48 47 46 46 46 44 41 36 34 36 36 35 34 33 33 34 34 33 32 33 31 31 30 29 30 29 37 41 46 49 46 38 34 44 46
nan nan nan nan nan nan nan nan nan nan nan nan nan nan nan nan nan nan nan nan nan nan nan nan nan nan nan nan nan 57 63 66 68 69 69 72 72 69 69 73 72 66 64 61 60 59 58 55 52 50 50 50 50 49 48 47 46 44 41 40 36 34 36 36 37 36 36 35 34 35 35 37 37 36 35 35 34 38 41 41 47 54 53 49 47 49
Wind_Direction
nan nan nan nan nan nan nan nan nan nan nan nan nan nan nan nan nan nan nan nan nan nan 198 181 200 240 244 161 227 242 249 249 247 248 253 270 270 277 298 331 338 342 344 327 336 344 338 298 215 196 207 195 174 164 169 174 179 171 170 175 165 160 155 155 152 153 151 154 160 159 156 153 153 147 142 138 132 129 127 130 126 129 123 120 117 117
nan nan nan nan nan nan nan nan nan nan nan nan nan nan nan nan nan nan nan nan nan nan 210 196 198 214 211 199 201 235 236 244 252 252 263 277 274 257 285 316 342 330 309 318 319 353 347 221 340 194 200 210 188 170 168 159 171 172 164 170 172 167 160 157 160 167 163 166 168 172 162 155 152 151 143 138 133 127 nan 131 127 126 127 126 118 118
nan nan nan nan nan nan nan nan nan nan nan nan nan nan nan nan nan nan nan nan nan nan nan nan nan nan nan nan nan nan 221 223 238 243 253 260 263 248 250 271 300 311 333 333 338 354 9 16 12 169 179 176 170 190 176 169 165 167 166 167 167 170 168 166 173 176 173 174 169 160 160 148 150 147 140 137 138 134 130 131 127 127 129 125 120 117
nan nan nan nan nan nan nan nan nan nan nan nan nan nan nan nan nan nan nan nan nan nan nan nan nan nan nan nan nan nan 208 216 224 231 237 245 256 262 260 259 264 292 290 328 337 359 17 25 46 146 164 171 174 190 184 174 159 168 170 167 164 174 176 177 181 180 179 176 170 155 157 146 136 148 157 154 156 146 136 134 138 135 128 121 118 115
nan nan nan nan nan nan nan nan nan nan nan nan nan nan nan nan nan nan nan nan nan nan nan nan nan nan nan nan nan nan nan 210 216 224 228 235 240 249 251 257 268 288 296 297 315 345 23 53 72 112 162 169 159 170 177 176 174 174 170 168 172 179 181 185 189 188 184 183 176 166 166 162 156 174 169 166 158 151 148 139 136 133 125 120 117 119
nan nan nan nan nan nan nan nan nan nan nan nan nan nan nan nan nan nan nan nan nan nan nan nan nan nan nan nan nan nan nan 212 210 218 228 233 238 249 260 269 274 281 286 300 312 325 345 48 134 138 139 142 154 159 168 179 184 180 179 177 181 182 183 187 193 191 179 170 165 166 166 161 160 163 170 165 158 152 144 133 131 124 119 116 115 118
nan nan nan nan nan nan nan nan nan nan nan nan nan nan nan nan nan nan nan nan nan nan nan nan nan nan nan nan nan nan nan nan 214 214 223 234 237 247 250 254 267 280 281 290 296 305 334 360 48 103 135 139 151 163 179 189 193 187 185 183 186 184 183 185 184 172 156 156 157 147 151 161 163 168 169 168 158 148 148 141 132 136 126 117 114 114
nan nan nan nan nan nan nan nan nan nan nan nan nan nan nan nan nan nan nan nan nan nan nan nan nan nan nan nan nan nan nan nan 216 213 218 231 239 244 247 251 262 270 280 285 303 317 342 359 16 53 117 161 165 178 180 190 199 201 196 196 191 186 184 184 177 158 146 156 153 146 157 168 170 171 173 168 153 146 150 148 136 140 138 125 116 117
nan nan nan nan nan nan nan nan nan nan nan nan nan nan nan nan nan nan nan nan nan nan nan nan nan nan nan nan nan nan nan nan 214 206 214 225 235 237 244 244 254 264 275 282 283 299 305 338 34 87 148 178 185 182 179 188 200 207 207 205 199 192 188 178 165 167 155 157 151 158 171 172 178 176 170 168 153 147 151 145 147 142 140 137 124 117
nan nan nan nan nan nan nan nan nan nan nan nan nan nan nan nan nan nan nan nan nan nan nan nan nan nan nan nan nan nan nan nan nan nan 207 219 228 235 234 235 242 248 251 262 278 285 292 289 258 198 190 190 184 190 191 192 199 207 212 211 206 197 189 177 165 169 156 150 156 166 164 167 182 177 167 161 161 155 162 148 149 150 142 135 129 120
nan nan nan nan nan nan nan nan nan nan nan nan nan nan nan nan nan nan nan nan nan nan nan nan nan nan nan nan nan nan nan nan nan nan 206 212 219 228 228 232 237 246 249 247 259 272 280 274 263 253 238 183 195 204 209 199 200 208 214 218 215 206 193 182 174 173 163 161 157 167 159 161 163 157 159 165 167 168 165 163 156 154 147 136 131 125
nan nan nan nan nan nan nan nan nan nan nan nan nan nan nan nan nan nan nan nan nan nan nan nan nan nan nan nan nan nan nan nan nan nan nan 210 218 223 226 227 234 243 243 243 245 253 270 276 287 287 301 287 245 219 223 215 212 210 215 221 225 217 202 190 186 186 179 174 160 163 154 152 141 149 165 162 164 166 166 166 161 159 154 144 136 131
nan nan nan nan nan nan nan nan nan nan nan nan nan nan nan nan nan nan nan nan nan nan nan nan nan nan nan nan nan nan nan nan nan nan nan nan 212 221 226 228 227 231 238 238 238 245 263 279 290 302 301 299 299 239 234 226 219 216 218 227 231 225 217 199 193 186 179 175 167 166 154 140 136 144 161 166 164 169 171 168 162 164 158 155 143 132
nan nan nan nan nan nan nan nan nan nan nan nan nan nan nan nan nan nan nan nan nan nan nan nan nan nan nan nan nan nan nan nan nan nan nan nan nan 214 220 224 225 229 234 235 239 248 266 279 285 292 295 299 290 302 250 227 216 214 213 224 228 225 222 211 201 197 185 177 174 168 160 154 150 156 166 169 167 168 171 170 164 161 159 154 136 126
nan nan nan nan nan nan nan nan nan nan nan nan nan nan nan nan nan nan nan nan nan nan nan nan nan nan nan nan nan nan nan nan nan nan nan nan nan nan 214 221 225 230 232 235 241 251 271 288 296 293 296 298 298 308 283 234 217 215 212 221 228 226 223 221 214 208 195 187 176 173 161 156 162 170 167 170 172 174 172 172 170 168 159 149 139 130
nan nan nan nan nan nan nan nan nan nan nan nan nan nan nan nan nan nan nan nan nan nan nan nan nan nan nan nan nan nan nan nan nan nan nan nan nan nan nan 217 222 228 233 237 240 247 264 283 294 292 298 304 304 313 294 277 233 218 213 219 228 230 227 221 220 215 208 196 186 173 164 159 168 177 173 174 179 181 182 180 178 176 159 147 145 143
nan nan nan nan nan nan nan nan nan nan nan nan nan nan nan nan nan nan nan nan nan nan nan nan nan nan nan nan nan nan nan nan nan nan nan nan nan nan nan nan 221 226 231 235 236 239 258 268 289 298 305 303 308 313 315 298 264 237 223 220 225 226 227 224 219 217 215 209 194 175 167 170 174 173 171 176 179 185 190 189 186 179 157 146 147 151
nan nan nan nan nan nan nan nan nan nan nan nan nan nan nan nan nan nan nan nan nan nan nan nan nan nan nan nan nan nan nan nan nan nan nan nan nan nan nan nan nan 224 230 235 235 238 250 260 283 290 293 304 310 317 313 306 282 245 229 227 229 228 231 229 226 221 219 219 210 194 178 176 179 180 177 179 184 190 195 195 192 180 166 154 154 155
nan nan nan nan nan nan nan nan nan nan nan nan nan nan nan nan nan nan nan nan nan nan nan nan nan nan nan nan nan nan nan nan nan nan nan nan nan nan nan nan nan nan 228 230 231 234 242 252 268 286 301 306 303 301 305 300 289 262 241 231 230 230 231 233 225 224 221 223 216 205 190 182 186 188 188 186 185 193 194 196 197 185 175 169 167 171
nan nan nan nan nan nan nan nan nan nan nan nan nan nan nan nan nan nan nan nan nan nan nan nan nan nan nan nan nan nan nan nan nan nan nan nan nan nan nan nan nan nan 227 231 234 240 247 261 277 293 298 298 299 300 298 301 290 289 262 244 233 228 226 229 231 230 228 227 222 215 203 193 194 196 193 192 186 188 196 195 195 194 186 179 181 183
nan nan nan nan nan nan nan nan nan nan nan nan nan nan nan nan nan nan nan nan nan nan nan nan nan nan nan nan nan nan nan nan nan nan nan nan nan nan nan nan nan nan 226 231 236 242 250 259 271 278 279 278 278 275 275 281 289 283 266 253 245 243 241 240 237 237 233 231 229 227 218 209 205 202 200 196 193 193 197 198 197 199 192 192 187 193
nan nan nan nan nan nan nan nan nan nan nan nan nan nan nan nan nan nan nan nan nan nan nan nan nan nan nan nan nan nan nan nan nan nan nan nan nan nan nan nan nan nan 225 231 235 241 246 253 260 262 260 259 265 272 279 279 278 280 284 267 253 245 238 241 240 237 238 236 236 238 231 222 214 212 209 204 203 200 200 200 204 204 200 193 197 199
nan nan nan nan nan nan nan nan nan nan nan nan nan nan nan nan nan nan nan nan nan nan nan nan nan nan nan nan nan nan nan nan nan nan nan nan nan nan nan nan nan 221 223 225 229 233 238 244 248 253 260 264 271 274 276 272 276 281 288 278 261 253 249 245 242 239 238 237 239 243 239 233 225 222 221 215 210 205 203 205 208 209 205 199 202 205
nan nan nan nan nan nan nan nan nan nan nan nan nan nan nan nan nan nan nan nan nan nan nan nan nan nan nan nan nan nan nan nan nan nan nan nan nan nan nan nan nan 218 222 220 219 221 225 231 238 241 251 255 256 259 262 262 267 270 272 276 269 265 256 247 241 241 241 240 241 244 242 239 234 234 230 223 215 211 206 208 211 213 209 207 203 208
nan nan nan nan nan nan nan nan nan nan nan nan nan nan nan nan nan nan nan nan nan nan nan nan nan nan nan nan nan nan nan nan nan nan nan nan nan nan nan nan nan 214 213 212 212 215 221 229 240 246 254 256 257 260 258 261 264 270 277 280 278 268 260 248 243 243 244 244 245 245 244 244 240 237 236 232 224 219 213 211 214 216 216 213 206 210
nan nan nan nan nan nan nan nan nan nan nan nan nan nan nan nan nan nan nan nan nan nan nan nan nan nan nan nan nan nan nan nan nan nan nan nan nan nan nan nan 208 210 210 209 210 215 219 225 235 243 248 249 255 255 253 253 260 267 274 282 277 270 263 255 247 247 247 245 245 244 248 246 243 242 242 239 234 229 221 217 216 220 221 217 215 216
nan nan nan nan nan nan 214 nan nan nan nan nan nan nan nan nan nan nan nan nan nan nan nan nan nan nan nan nan nan nan nan nan nan nan nan nan nan nan nan nan nan 210 210 209 210 211 215 220 231 243 249 251 252 250 248 251 256 263 269 278 280 273 269 261 252 250 250 249 250 246 247 247 246 243 242 242 239 234 228 224 223 224 225 223 220 224
nan nan nan nan nan nan nan nan nan nan nan nan nan nan nan nan nan nan nan nan nan nan nan nan nan nan nan nan nan nan nan nan nan nan nan nan nan nan nan 207 nan nan 207 209 211 215 219 223 230 240 250 253 249 247 246 248 253 260 266 275 276 275 274 264 261 257 255 252 250 249 250 245 244 244 242 241 240 238 234 230 227 227 226 226 225 226
nan nan nan nan nan nan nan nan nan nan nan nan nan nan nan nan nan nan nan nan nan nan nan nan nan nan nan nan nan nan nan nan nan nan nan nan nan nan nan nan nan nan nan 212 216 219 221 225 227 236 246 252 254 253 253 249 251 255 260 268 273 277 283 279 272 265 259 256 254 252 251 246 242 239 240 241 242 241 238 236 233 232 230 229 227 227
nan nan nan nan nan nan nan nan nan nan nan nan nan nan nan nan nan nan nan nan nan nan nan nan nan nan nan nan nan nan nan nan nan nan nan nan 199 200 197 198 nan nan nan nan 215 219 224 225 229 235 243 247 250 250 251 249 252 259 266 274 282 284 286 284 283 276 267 262 258 253 253 251 244 241 240 241 244 244 243 240 238 236 235 234 231 231
nan nan nan nan nan nan nan nan nan nan nan nan nan nan nan nan nan nan nan nan nan nan nan nan nan nan nan nan 202 196 197 nan nan nan 197 198 200 200 198 197 197 199 201 204 nan 213 217 222 225 232 237 239 241 244 245 250 255 259 266 271 279 284 288 288 287 286 277 267 259 255 255 252 250 246 244 243 242 243 244 244 241 239 238 235 235 235
nan nan nan nan nan nan nan nan nan nan nan nan nan nan nan nan nan nan nan nan nan nan nan nan nan nan nan 205 200 197 nan nan nan 198 199 200 201 201 200 198 198 199 201 203 206 206 209 216 222 227 230 233 236 238 241 247 254 258 264 270 278 284 286 285 286 287 281 271 261 257 258 255 255 252 249 245 245 245 245 243 243 242 240 239 240 239
nan nan nan nan nan nan nan nan nan nan nan nan nan nan nan nan nan nan nan 216 213 nan nan nan nan nan 208 203 199 198 199 199 200 203 202 200 200 200 200 199 198 199 201 203 204 204 203 206 215 223 223 225 230 234 243 254 257 260 263 266 270 271 277 280 281 279 278 274 267 261 258 257 258 257 252 249 247 245 244 244 244 244 244 244 242 242
nan nan nan nan nan nan nan nan nan nan nan nan nan nan nan nan nan nan nan 221 218 nan nan nan 218 nan nan nan 198 196 196 199 202 205 205 204 202 200 200 200 200 200 201 203 204 202 202 205 208 213 217 221 228 236 240 248 255 254 254 255 258 265 267 270 272 273 276 274 270 264 261 260 260 258 255 252 249 247 247 247 246 245 243 241 242 243
nan nan nan nan nan nan nan nan nan nan nan nan 211 nan nan nan nan nan 224 nan nan nan nan nan nan nan nan nan nan 194 192 191 195 199 203 207 206 202 199 199 201 202 201 202 203 204 203 203 206 208 212 215 223 229 232 237 243 245 249 255 261 263 264 267 269 270 272 273 270 265 262 262 261 259 256 254 252 250 250 250 246 247 244 242 243 244
nan nan nan nan nan nan nan nan nan nan nan 215 213 210 209 211 nan 231 225 nan nan nan nan nan nan nan nan nan nan nan 193 190 191 198 204 208 208 204 200 199 200 201 201 203 202 203 206 205 206 208 211 213 219 228 230 234 242 245 249 253 258 260 262 263 265 268 270 271 271 269 266 264 261 259 257 255 254 253 253 251 251 251 248 244 242 242
nan nan nan nan nan nan nan nan nan nan nan nan 212 210 213 213 220 nan 221 nan nan nan nan nan nan nan nan nan nan nan 194 194 195 204 216 215 208 206 202 199 197 198 200 202 203 203 207 210 208 210 217 220 222 229 229 230 238 243 248 252 255 259 262 262 266 270 271 273 274 272 267 262 260 259 258 255 255 254 253 252 252 251 249 248 245 246
nan nan nan nan nan nan nan nan nan nan nan nan 215 212 209 213 212 nan 218 nan nan nan nan nan nan nan nan nan nan 192 191 195 200 212 220 209 206 202 202 200 199 198 199 202 204 204 209 214 215 218 223 230 234 238 236 234 237 241 245 249 252 258 261 266 270 270 270 273 276 273 267 261 260 260 259 257 257 255 251 251 249 252 252 252 250 249
nan nan nan nan nan nan nan nan nan nan nan 217 nan 208 212 nan 211 212 212 216 nan nan nan nan nan nan 204 nan 196 192 195 198 205 213 208 204 199 198 197 199 201 201 200 201 201 203 207 217 219 221 228 232 238 242 244 243 242 241 244 249 254 257 261 266 268 270 273 276 276 274 267 260 258 258 259 259 258 254 254 253 251 250 250 250 249 247
nan nan nan nan nan nan nan nan nan nan nan nan nan nan nan 209 213 214 215 nan nan nan 216 nan nan nan 203 201 201 203 202 201 202 200 198 195 195 190 194 198 202 200 197 196 198 200 203 212 219 222 230 234 238 244 247 247 242 240 241 246 250 254 259 267 270 269 269 270 272 271 266 258 256 255 257 258 256 254 253 251 250 253 254 251 249 250
nan nan nan nan nan nan nan nan nan nan 208 nan nan nan nan 206 211 216 nan nan nan nan nan nan nan nan 204 203 204 203 199 nan 195 193 193 193 191 190 193 199 199 196 192 192 198 197 204 213 217 221 225 229 236 243 245 242 239 239 239 242 246 253 258 262 264 264 265 268 271 273 271 259 256 256 253 251 252 252 252 253 253 254 255 254 252 252
nan nan nan nan nan nan nan nan nan nan 208 nan 200 nan nan 208 216 215 nan nan nan nan nan nan nan nan 204 204 201 199 194 192 192 193 193 192 190 188 190 195 195 195 196 196 202 203 206 207 213 219 225 231 237 240 241 238 237 238 240 242 247 253 251 256 262 264 265 269 274 276 271 261 254 253 248 248 250 252 253 252 252 251 254 251 252 255
nan nan nan nan nan nan nan nan nan nan nan nan nan 198 nan 203 nan nan nan nan nan nan nan nan nan nan 203 202 199 195 193 192 193 193 193 191 192 190 190 194 195 198 200 199 202 206 204 207 213 218 226 233 237 235 235 237 238 238 239 242 246 247 249 255 260 263 265 268 273 272 268 260 259 253 248 250 253 254 253 251 251 249 249 249 249 252
nan nan nan nan nan nan nan nan nan 205 nan nan nan nan nan nan nan nan nan nan nan nan nan nan nan nan 202 202 198 195 192 192 192 194 192 190 189 190 192 194 197 198 199 201 204 203 206 209 211 213 222 225 229 229 229 233 234 234 235 239 240 243 247 251 257 260 263 265 269 267 263 261 259 255 251 254 252 251 251 250 250 249 247 247 245 245
nan nan nan nan 209 190 190 196 nan nan nan nan nan nan nan nan nan nan nan nan nan 213 nan 208 204 202 nan 203 200 196 194 192 192 194 192 188 187 191 193 195 195 196 198 200 203 201 204 214 214 212 212 219 226 225 225 226 226 227 231 235 240 244 248 250 254 257 259 261 263 262 259 257 254 254 250 249 248 244 240 243 244 242 240 241 240 237
nan nan 210 nan nan nan nan nan nan nan nan nan nan nan nan nan nan nan nan nan nan nan nan 206 203 202 nan 204 202 198 195 192 192 193 191 188 188 193 195 195 195 195 197 199 201 201 206 212 219 216 211 210 213 214 216 217 218 223 229 235 240 245 245 246 249 253 255 254 255 255 254 256 255 251 246 242 233 230 226 229 230 227 231 231 230 228
nan nan nan nan nan nan nan nan nan nan nan nan nan nan nan nan nan nan nan nan nan nan nan nan 203 nan nan nan 203 199 195 194 193 193 191 189 190 194 196 194 194 194 196 199 199 203 207 212 218 216 212 209 206 207 211 212 214 221 227 232 238 240 239 241 243 245 247 248 247 247 247 250 246 242 236 230 224 222 221 222 222 225 228 232 232 233
nan nan nan nan nan nan nan nan nan nan nan nan nan nan nan nan nan nan nan nan nan nan nan nan nan 202 nan 204 203 201 197 195 195 194 192 190 191 195 195 194 194 195 196 200 202 207 210 210 214 215 215 214 212 208 209 212 216 220 224 228 230 232 231 233 236 238 241 243 241 240 242 241 241 238 230 228 225 224 224 224 225 228 234 236 238 239
nan nan nan nan nan nan nan nan nan nan nan nan nan nan nan nan nan nan nan nan nan nan nan nan nan nan nan nan nan 201 198 195 194 193 192 191 193 196 196 194 196 198 199 200 202 205 208 211 214 214 214 215 215 216 213 212 214 218 222 224 226 228 228 227 230 231 235 238 239 239 239 238 238 235 229 229 227 225 221 220 227 234 236 236 238 240
nan nan nan nan nan nan nan nan nan nan nan nan nan nan nan nan nan nan nan nan nan nan nan nan nan nan nan nan 202 202 200 196 194 194 193 192 194 195 195 196 197 199 201 201 204 207 208 210 211 211 211 214 216 219 220 218 217 218 221 224 224 225 227 228 227 229 232 236 238 238 240 238 237 236 232 231 231 231 228 226 227 223 225 232 223 222
nan nan nan nan nan nan nan nan nan nan nan nan nan nan nan nan nan nan nan nan nan nan nan nan nan nan nan nan nan 203 201 198 195 195 194 193 194 197 197 198 198 199 201 201 204 207 208 209 209 209 210 211 214 218 221 221 220 220 221 221 222 227 227 228 227 227 229 234 237 240 240 238 237 237 235 232 232 233 236 234 231 230 230 230 229 231